C/2014 B1 ( Schwartz )

Japanese version
Home page
Updated on May 21, 2018

---------------------------------------------------------------------

* Profile

Discovery Date January 28, 2014
Magnitude 19.9 mag
Discoverer Michael Schwartz (Tenagra Observatory near Nogales, AZ, U.S.A.)

* Pictures

* Orbital Elements

Epoch 2017 Sept. 4.0 TT = JDT 2458000.5
T 2017 Sept. 10.53513 TT                                MPCW
q   9.5565877            (2000.0)            P               Q
z  -0.0003922      Peri.  345.84171     -0.85029311     -0.50400199
 +/-0.0000007      Node   161.39562     +0.51719169     -0.85353239
e   1.0037477      Incl.   28.37228     +0.09754164     +0.13215317
From 716 observations 2014 Jan. 28-2018 Mar. 25, mean residual 0".4.

* Magnitudes Graph

        m1 = -13.0 + 5 log d + 25 log r(t + 200)

---------------------------------------------------------------------

The orbital elements are published on M.P.E.C. 2018-F152.
The magnitudes graphs are made with Comet for Windows.

---------------------------------------------------------------------

Copyright(C) Seiichi Yoshida (comet@aerith.net). All rights reserved.